Dewpoint
16 18 19 17 22 23 23 23 23 24 21 19 19 22 28 29 31 31 33 35 38 41 42 43 47 51 53 56 58 60 61 62 60 58 58 59 59 61 62 63 64 64 65 64
17 16 17 19 17 19 21 22 21 21 20 22 22 24 27 29 29 30 35 36 38 40 41 44 48 51 54 56 58 60 60 61 61 59 61 61 62 62 62 64 64 64 64 64
15 14 15 17 17 19 20 18 20 20 21 23 24 23 23 25 32 31 32 35 38 40 43 46 48 51 53 55 57 59 60 61 61 62 61 62 63 62 61 62 63 63 62 62
13 13 13 14 16 20 18 20 20 20 22 16 25 19 25 25 27 28 30 36 38 39 43 47 48 50 53 55 57 59 60 61 61 62 61 62 60 59 61 62 62 63 61 62
14 12 13 14 16 21 19 20 23 23 24 24 22 22 22 26 25 26 29 30 37 39 42 47 48 50 53 55 57 59 61 61 62 62 62 61 62 61 62 62 62 63 63 62
14 14 11 12 17 23 24 23 25 26 24 20 21 23 21 23 24 24 30 33 36 42 47 48 50 52 53 55 57 59 60 61 61 62 62 63 62 61 60 61 61 61 61 63
13 11 13 11 16 22 26 26 18 17 18 17 21 22 23 23 23 27 30 32 39 47 48 48 50 50 53 54 56 57 59 59 61 61 61 62 61 61 60 60 61 61 61 61
15 11 10 13 12 19 25 24 17 18 18 15 25 20 22 29 28 28 32 36 41 48 48 48 49 51 52 55 57 57 58 58 60 60 61 61 62 59 59 60 61 60 60 60
19 16 14 13 12 16 22 21 21 16 25 21 24 28 31 32 32 34 34 37 43 48 49 48 50 51 52 55 57 57 57 58 60 60 61 61 61 60 60 61 62 60 61 61
26 20 17 12 12 13 14 18 19 17 14 13 16 24 24 30 30 32 34 39 44 48 48 48 49 51 53 55 57 58 58 58 59 59 61 60 61 60 61 61 61 61 61 61
29 23 19 14 15 12 16 18 19 21 18 14 11 13 33 33 33 32 34 41 45 47 47 48 49 51 53 55 56 57 56 56 57 58 60 60 60 59 60 60 60 60 61 61
34 31 19 17 16 17 16 18 22 14 21 16 21 17 32 36 34 35 34 41 45 47 47 47 48 50 51 53 54 55 56 55 55 58 58 60 61 60 60 60 60 59 59 60
36 27 20 18 19 19 17 17 21 26 27 21 13 16 30 36 35 35 38 42 46 48 48 48 48 49 50 52 53 52 55 55 54 57 57 61 61 61 61 60 60 60 60 60
36 29 26 14 19 21 18 17 18 22 18 20 19 14 22 24 31 37 41 44 45 47 48 48 48 49 50 51 51 51 53 54 54 55 57 60 61 61 60 59 60 60 60 60
34 28 26 25 25 26 18 15 15 17 18 17 19 19 19 29 29 36 42 45 46 47 47 48 48 49 50 50 51 50 51 53 54 54 57 59 61 60 60 60 60 60 61 61
33 27 28 25 23 23 22 20 17 16 16 17 17 18 22 25 30 38 42 44 45 46 46 47 48 49 49 49 49 50 52 52 54 54 56 58 59 58 60 60 60 60 60 61
31 29 28 22 25 24 20 21 21 18 18 18 16 21 20 23 31 38 44 44 44 46 47 48 49 50 50 49 50 50 53 52 53 52 56 56 58 57 58 59 59 59 61 62
32 33 30 25 27 18 29 36 31 21 35 37 30 29 41 43 43 41 39 44 45 47 48 49 49 51 51 50 50 50 52 52 50 51 55 55 55 56 57 58 59 60 61 61
35 36 32 25 27 31 34 34 35 31 35 37 37 38 38 40 44 40 42 43 46 50 50 50 50 52 52 51 50 50 51 51 50 49 54 54 55 56 57 58 59 59 60 60
38 38 33 28 28 22 34 35 35 41 34 36 38 38 39 40 27 32 44 46 45 49 50 50 51 52 52 52 52 51 50 50 51 49 52 53 55 56 57 59 59 59 60 59
34 35 30 27 29 34 35 35 37 35 32 38 38 39 40 39 41 44 44 47 47 49 50 51 52 52 53 53 53 51 50 50 51 49 50 53 55 57 58 61 59 58 58 58
34 34 32 29 31 31 37 32 33 36 39 38 39 39 40 41 42 43 44 46 47 48 49 50 50 51 53 53 52 51 51 51 51 50 49 52 56 56 56 60 59 57 59 58
33 35 34 35 35 38 38 38 37 38 37 37 38 40 42 42 43 43 43 46 47 48 49 49 49 51 52 52 52 51 52 51 51 51 52 52 54 55 57 58 58 55 57 54
35 37 37 36 37 37 37 36 37 37 36 37 37 39 41 42 43 44 47 48 45 46 48 49 49 50 50 51 51 52 51 50 50 52 53 53 52 55 56 55 56 53 53 52
36 37 37 37 38 36 35 37 37 37 35 34 35 37 40 42 43 44 45 50 48 46 48 49 50 49 49 50 50 51 51 49 50 53 53 53 50 54 56 56 55 53 55 51
38 37 37 36 36 37 35 37 37 36 35 33 34 36 39 42 43 45 48 52 51 45 47 48 49 50 49 49 49 50 49 49 52 52 51 50 48 49 52 55 54 41 45 45
Lifted_Index
7 6 5 5 5 4 3 3 3 3 3 2 2 2 3 3 3 3 3 3 2 2 1 2 2 2 2 2 1 0 -0 -1 -1 -1 -1 -1 -1 -1 -1 -1 -1 -2 -2 -2
6 5 5 5 5 4 3 3 3 3 3 3 2 3 3 4 3 3 3 3 2 2 1 2 2 2 2 2 1 0 -0 -1 -1 -1 -1 -1 -1 -1 -1 -1 -1 -2 -2 -2
5 5 5 5 4 4 3 3 3 3 3 3 3 3 4 4 4 3 3 3 2 2 2 2 2 2 2 2 1 1 -0 -1 -1 -1 -1 -1 -1 -1 -1 -1 -1 -1 -1 -1
5 6 6 5 4 4 4 4 4 4 3 3 4 4 5 5 4 3 3 3 2 2 2 3 3 3 2 2 2 1 -0 -1 -1 -0 -0 -1 -1 -1 -1 -1 -1 -1 -1 -1
6 7 6 5 5 4 4 5 5 4 4 4 4 5 5 4 3 3 3 2 2 3 3 3 3 3 3 3 2 1 0 -0 -0 -0 -0 -1 -1 -1 -1 -0 -1 -1 -1 -1
7 7 7 6 5 5 5 5 4 3 3 3 4 5 4 3 3 3 3 3 3 3 3 4 4 3 3 2 2 1 1 0 0 0 -0 -1 -1 -0 -0 -0 -0 -1 -1 -1
6 7 7 7 6 6 5 4 3 2 1 2 3 4 3 2 3 3 3 3 3 3 4 4 4 3 3 2 2 1 1 1 0 0 -0 -0 -0 -0 0 0 -0 -0 -1 -1
5 5 7 7 7 6 5 4 3 1 1 2 3 3 2 2 2 3 3 3 3 3 4 4 4 3 3 2 2 1 1 1 0 -0 -0 -0 -0 0 0 0 0 0 -0 -0
5 5 6 7 7 6 6 5 4 3 2 2 2 3 2 2 2 2 2 2 3 3 4 4 4 3 3 2 2 1 1 1 0 -0 -0 -0 0 0 1 1 1 0 0 -0
5 5 6 6 6 6 6 6 5 4 2 1 1 2 2 2 2 2 2 2 2 3 3 3 3 3 3 2 1 1 1 1 0 -0 -0 -0 0 0 1 1 1 1 0 0
5 5 5 5 6 6 6 6 5 4 3 1 1 1 2 2 2 2 2 2 3 3 3 3 3 3 3 2 1 1 1 1 1 0 0 -0 -0 0 1 1 1 1 1 0
4 5 5 5 6 6 6 5 5 4 3 2 1 1 2 2 2 1 1 2 3 3 3 3 3 3 3 2 2 2 2 2 1 1 0 -0 -0 0 1 1 2 1 1 1
4 4 4 4 5 6 6 6 5 5 4 3 2 1 2 2 2 2 2 3 3 2 2 3 3 3 3 2 2 2 2 2 2 1 0 -0 -0 0 1 1 2 1 1 1
5 5 5 5 5 6 6 6 6 6 5 3 2 2 2 2 2 2 3 3 2 2 2 3 3 3 3 3 3 3 3 2 2 1 0 -0 -0 0 1 1 1 1 0 0
5 5 5 5 6 6 6 6 6 6 5 4 3 2 2 2 2 3 3 3 2 2 2 3 3 3 3 3 3 3 3 3 2 1 1 0 0 0 1 1 1 1 0 -0
5 5 5 5 6 6 6 6 6 6 6 5 4 2 2 3 3 3 3 2 2 2 2 3 3 3 3 4 4 4 3 3 3 2 1 1 1 1 1 0 0 0 -0 -1
5 5 4 4 5 5 5 6 6 6 6 6 4 3 3 3 3 3 2 2 1 1 2 3 3 3 3 4 4 4 3 3 3 2 1 1 1 1 1 0 -0 -0 -0 -1
5 5 4 4 3 3 4 5 5 6 6 6 5 4 4 3 3 3 2 1 1 1 2 2 3 3 3 4 4 4 3 3 3 3 2 1 1 1 1 -0 -0 -0 -0 -1
4 5 4 3 3 3 4 5 5 5 6 7 6 5 5 4 3 3 2 1 1 1 1 2 3 3 3 3 4 4 3 3 3 3 2 1 1 1 0 -0 -0 -0 -0 -0
4 4 4 3 2 2 3 4 4 5 5 6 6 5 5 4 4 3 2 2 1 1 1 2 2 3 3 3 3 3 3 3 3 3 2 2 1 1 0 -0 0 1 0 0
3 3 3 2 2 2 3 3 3 4 6 6 6 5 4 4 4 4 3 2 1 1 1 2 2 3 3 3 3 3 3 3 3 3 3 2 1 1 0 0 1 1 1 1
2 2 2 2 3 3 4 4 4 5 6 6 5 5 4 4 4 4 3 2 2 2 2 1 2 3 3 3 3 3 3 3 3 3 3 2 1 1 0 0 1 1 1 1
3 3 2 2 3 5 6 6 6 6 6 6 5 4 4 3 3 3 3 2 2 2 2 2 2 2 3 3 3 2 2 3 3 3 3 3 2 1 1 1 1 1 2 2
3 4 3 3 4 6 7 7 7 7 6 6 6 5 4 3 3 3 3 3 2 2 2 2 2 3 3 3 3 2 3 3 3 3 3 3 3 2 1 1 1 1 2 2
4 4 4 4 5 6 7 7 7 6 6 6 6 5 4 3 2 2 3 3 3 3 3 2 2 3 3 3 3 3 3 3 3 2 3 3 3 2 1 1 1 1 1 1
4 4 4 4 5 6 6 7 7 6 5 5 5 5 4 3 2 2 2 2 3 3 3 2 2 3 3 3 3 3 3 3 3 2 3 3 3 3 2 1 1 1 1 1